Simultaneous Nadir Overpasses (SNOs) Predictions

Prediction of SNOs between LANDSAT-8 and METOP-B Satellite Orbit:

Table of predicted SNOs for the next 14.0 days since TLE Epoch: 8/11/2016
Index Date (LANDSAT-8) Time (LANDSAT-8) Lat,Lon (LANDSAT-8) SZA (LANDSAT-8 ) Date (METOP-B) Time (METOP-B) Lat,Lon (METOP-B) SZA (METOP-B ) Distance(km) Time Diff (sec)
1 08/13/2016 20:17:51 -81.08, 94.93 111.30 08/13/2016 20:17:33 -81.08, 94.88 111.32 0.88 18
2 08/13/2016 21:07:16 81.11, -97.01 68.77 08/13/2016 21:08:11 81.11, -96.91 68.81 1.80 55
3 08/16/2016 15:52:06 -81.09, 161.54 110.38 08/16/2016 15:51:56 -81.09, 161.55 110.39 0.45 10
4 08/16/2016 16:41:31 81.12, -30.43 69.69 08/16/2016 16:42:34 81.12, -30.27 69.73 2.78 63
5 08/19/2016 11:26:23 -81.08,-132.25 109.50 08/19/2016 11:26:21 -81.08,-132.16 109.48 1.73 2
6 08/19/2016 12:15:48 81.10, 35.75 70.57 08/19/2016 12:17:00 81.10, 35.61 70.59 2.44 72
7 08/22/2016 06:11:13 81.05, 126.21 71.40 08/22/2016 06:10:06 81.06, 126.20 71.37 0.45 67
8 08/22/2016 07:00:39 -81.08, -65.73 108.53 08/22/2016 07:00:46 -81.08, -65.89 108.55 2.93 7
9 08/25/2016 01:45:27 81.08,-166.97 72.43 08/25/2016 01:44:28 81.08,-166.83 72.42 2.40 59




NCC Satellite Simultaneous Nadir Overpasses (SNOs) Prediction Service
